Change the Weather History Date:

Monday, July 8, 2013

  Actual Average Record
Temperature  
Mean Temperature 74 °F -  
Max Temperature 84 °F 80 °F 97 °F (2010)
Min Temperature 66 °F 66 °F 57 °F (1998)
Cooling Degree Days 9    
Growing Degree Days 24 (Base 50)    
Moisture  
Dew Point 67 °F    
Average Humidity 93    
Maximum Humidity 100    
Minimum Humidity 54    
Precipitation  
Precipitation 0.05 in - - ()
Sea Level Pressure  
Sea Level Pressure 30.07 in    
Wind  
Wind Speed 1 mph (WSW)    
Max Wind Speed 17 mph    
Max Gust Speed 25 mph    
Visibility 5 miles    
Events Fog , Rain , Thunderstorm    
Averages and records for this station are not official NWS values.
T = Trace of Precipitation, MM = Missing Value Source: NWS Daily Summary

Daily Weather History Graph

Daily Weather History Graph

Search for Another Location

Airport or City:

Trip Planner

Search our weather history database for the weather conditions in past years. The results will help you decide how hot, cold, wet, or windy it might be!

Date:

Astronomy

Jul. 08, 2013 Rise Set
Actual Time 5:43 AM EDT 8:38 PM EDT
Civil Twilight 5:11 AM EDT 9:11 PM EDT
Nautical Twilight 4:30 AM EDT 9:52 PM EDT
Astronomical Twilight 3:42 AM EDT 10:39 PM EDT
Moon 6:11 AM EDT (7/8) 8:39 PM EDT (7/8)
Length of Visible Light 15h 59m
Length of Day
14h 54m
New Moon, 0% of the Moon is Illuminated
Jul 8
New Moon
Jul 15
First Quarter
Jul 22
Full
Jul 29
Last Quarter
Aug 6
New

Hourly Weather History & Observations

Time (EDT) Temp. Heat Index Dew Point Humidity Pressure Visibility Wind Dir Wind Speed Gust Speed Precip Events Conditions
12:56 AM 68.0 °F - 68.0 °F 100% 30.05 in 10.0 mi Calm Calm - N/A   Clear
1:56 AM 66.2 °F - 66.2 °F 100% 30.05 in 10.0 mi Calm Calm - N/A   Clear
2:44 AM 66.2 °F - 66.2 °F 100% 30.05 in 10.0 mi Calm Calm - N/A   Mostly Cloudy
2:56 AM 66.2 °F - 66.2 °F 100% 30.05 in 10.0 mi Calm Calm - N/A   Scattered Clouds
3:09 AM 68.0 °F - 66.2 °F 94% 30.04 in 10.0 mi SW 3.5 mph - N/A   Partly Cloudy
3:24 AM 68.0 °F - 68.0 °F 100% 30.05 in 10.0 mi SW 3.5 mph - N/A   Mostly Cloudy
3:56 AM 68.0 °F - 68.0 °F 100% 30.05 in 8.0 mi SW 3.5 mph - N/A   Overcast
4:38 AM 68.0 °F - 66.2 °F 94% 30.06 in 2.5 mi Calm Calm - N/A   Overcast
4:40 AM 68.0 °F - 66.2 °F 94% 30.06 in 1.8 mi Calm Calm - N/A   Overcast
4:41 AM 68.0 °F - 66.2 °F 94% 30.06 in 1.5 mi Calm Calm - N/A   Overcast
4:43 AM 68.0 °F - 66.2 °F 94% 30.06 in 1.2 mi Calm Calm - N/A   Overcast
4:49 AM 68.0 °F - 66.2 °F 94% 30.06 in 1.5 mi Calm Calm - N/A   Overcast
4:51 AM 68.0 °F - 66.2 °F 94% 30.06 in 1.8 mi Calm Calm - N/A   Overcast
4:52 AM 68.0 °F - 66.2 °F 94% 30.06 in 2.0 mi Calm Calm - N/A   Overcast
4:56 AM 68.0 °F - 66.2 °F 94% 30.07 in 2.0 mi Calm Calm - N/A   Overcast
5:12 AM 66.2 °F - 66.2 °F 100% 30.07 in 1.8 mi Calm Calm - N/A   Overcast
5:16 AM 66.2 °F - 66.2 °F 100% 30.07 in 1.5 mi Calm Calm - N/A   Overcast
5:18 AM 66.2 °F - 66.2 °F 100% 30.07 in 1.8 mi Calm Calm - N/A   Overcast
5:20 AM 66.2 °F - 66.2 °F 100% 30.07 in 1.5 mi Calm Calm - N/A   Overcast
5:34 AM 68.0 °F - 68.0 °F 100% 30.08 in 1.8 mi Calm Calm - N/A   Overcast
5:35 AM 68.0 °F - 68.0 °F 100% 30.08 in 2.0 mi Calm Calm - N/A   Overcast
5:38 AM 68.0 °F - 68.0 °F 100% 30.08 in 1.8 mi Calm Calm - N/A   Overcast
5:39 AM 68.0 °F - 68.0 °F 100% 30.08 in 1.5 mi Calm Calm - N/A   Overcast
5:40 AM 68.0 °F - 68.0 °F 100% 30.08 in 1.2 mi Calm Calm - N/A   Overcast
5:42 AM 66.2 °F - 66.2 °F 100% 30.08 in 1.0 mi Calm Calm - N/A   Mist
5:52 AM 66.2 °F - 66.2 °F 100% 30.08 in 0.8 mi Calm Calm - N/A   Mist
5:56 AM 66.2 °F - 66.2 °F 100% 30.08 in 0.8 mi Calm Calm - N/A   Mist
5:57 AM 66.2 °F - 66.2 °F 100% 30.08 in 0.5 mi Calm Calm - N/A Fog Fog
6:17 AM 66.2 °F - 66.2 °F 100% 30.08 in 0.8 mi Calm Calm - N/A   Mist
6:20 AM 68.0 °F - 68.0 °F 100% 30.08 in 1.0 mi Calm Calm - N/A   Mist
6:22 AM 68.0 °F - 68.0 °F 100% 30.08 in 1.2 mi Calm Calm - N/A   Overcast
6:24 AM 68.0 °F - 68.0 °F 100% 30.07 in 1.5 mi Calm Calm - N/A   Overcast
6:25 AM 68.0 °F - 68.0 °F 100% 30.08 in 1.8 mi Calm Calm - N/A   Overcast
6:26 AM 68.0 °F - 68.0 °F 100% 30.08 in 1.5 mi Calm Calm - N/A   Overcast
6:30 AM 68.0 °F - 68.0 °F 100% 30.08 in 1.8 mi Calm Calm - N/A   Overcast
6:31 AM 68.0 °F - 68.0 °F 100% 30.08 in 2.0 mi Calm Calm - N/A   Overcast
6:41 AM 68.0 °F - 68.0 °F 100% 30.08 in 3.0 mi Calm Calm - N/A   Overcast
6:51 AM 68.0 °F - 68.0 °F 100% 30.08 in 2.5 mi NW 1.2 mph - N/A   Overcast
6:53 AM 68.0 °F - 68.0 °F 100% 30.08 in 1.8 mi West 2.3 mph - N/A   Overcast
6:54 AM 68.0 °F - 68.0 °F 100% 30.08 in 1.5 mi WSW 3.5 mph - N/A   Overcast
6:56 AM 68.0 °F - 68.0 °F 100% 30.08 in 1.2 mi NW 1.2 mph - N/A   Overcast
7:04 AM 68.0 °F - 68.0 °F 100% 30.08 in 0.5 mi Calm Calm - N/A Fog Fog
7:14 AM 68.0 °F - 68.0 °F 100% 30.08 in 0.8 mi Calm Calm - N/A   Mist
7:33 AM 68.0 °F - 68.0 °F 100% 30.08 in 1.0 mi Calm Calm - N/A   Mist
7:36 AM 68.0 °F - 68.0 °F 100% 30.08 in 1.2 mi Calm Calm - N/A   Overcast
7:38 AM 68.0 °F - 68.0 °F 100% 30.08 in 1.5 mi Calm Calm - N/A   Overcast
7:40 AM 68.0 °F - 68.0 °F 100% 30.08 in 1.8 mi Calm Calm - N/A   Overcast
7:41 AM 68.0 °F - 68.0 °F 100% 30.08 in 2.0 mi Calm Calm - N/A   Overcast
7:43 AM 68.0 °F - 68.0 °F 100% 30.08 in 3.0 mi Calm Calm - N/A   Overcast
7:56 AM 68.0 °F - 68.0 °F 100% 30.09 in 4.0 mi Calm Calm - N/A   Overcast
8:33 AM 69.8 °F - 69.8 °F 100% 30.10 in 10.0 mi Calm Calm - N/A   Overcast
8:39 AM 69.8 °F - 69.8 °F 100% 30.10 in 10.0 mi Calm Calm - N/A   Overcast
8:56 AM 71.6 °F - 69.8 °F 94% 30.10 in 10.0 mi Calm Calm - N/A   Mostly Cloudy
9:03 AM 71.6 °F - 71.6 °F 100% 30.10 in 10.0 mi Calm Calm - N/A   Mostly Cloudy
9:56 AM 75.2 °F - 69.8 °F 83% 30.10 in 10.0 mi West 2.3 mph - N/A   Partly Cloudy
10:56 AM 78.8 °F - 68.0 °F 69% 30.10 in 10.0 mi West 4.6 mph - N/A   Scattered Clouds
11:56 AM 80.6 °F 82.7 °F 66.2 °F 61% 30.09 in 10.0 mi Variable 4.6 mph - N/A   Partly Cloudy
12:56 PM 82.4 °F 84.6 °F 66.2 °F 58% 30.08 in 10.0 mi West 4.6 mph - N/A   Partly Cloudy
1:56 PM 82.4 °F 83.9 °F 64.4 °F 54% 30.07 in 10.0 mi WSW 11.5 mph - N/A Thunderstorm Light Drizzle
1:58 PM 82.4 °F 83.9 °F 64.4 °F 54% 30.07 in 10.0 mi WSW 10.4 mph - N/A Thunderstorm Light Drizzle
2:06 PM 78.8 °F - 68.0 °F 69% 30.08 in 9.0 mi SW 17.3 mph 25.3 mph N/A Rain , Thunderstorm Light Thunderstorms and Rain
2:36 PM 69.8 °F - 68.0 °F 94% 30.09 in 10.0 mi Calm Calm - N/A Rain Light Rain
2:58 PM 70.2 °F - 68.0 °F 93% 30.09 in 10.0 mi SSW 2.3 mph - 0.02 in Rain Light Rain
3:49 PM 71.6 °F - 68.0 °F 88% 30.07 in 10.0 mi SW 4.6 mph - N/A   Partly Cloudy
3:58 PM 72.7 °F - 67.8 °F 85% 30.06 in 10.0 mi Calm Calm - 0.01 in   Partly Cloudy
4:58 PM 79.5 °F - 67.1 °F 66% 30.05 in 10.0 mi Variable 4.6 mph - N/A   Clear
5:52 PM 77.0 °F - 64.4 °F 65% 30.05 in 10.0 mi Variable 6.9 mph 19.6 mph N/A Rain Light Rain
5:58 PM 75.7 °F - 64.4 °F 68% 30.05 in 9.0 mi West 9.2 mph 18.4 mph 0.01 in Rain Light Rain
6:40 PM 73.4 °F - 68.0 °F 83% 30.04 in 10.0 mi WNW 2.3 mph - N/A Rain Light Rain
6:58 PM 73.8 °F - 68.9 °F 85% 30.05 in 10.0 mi West 2.3 mph - 0.01 in   Light Drizzle
7:00 PM 73.4 °F - 69.8 °F 88% 30.04 in 10.0 mi West 3.5 mph - N/A   Light Drizzle
7:01 PM 73.4 °F - 69.8 °F 88% 30.04 in 10.0 mi WSW 3.5 mph - N/A   Partly Cloudy
7:58 PM 72.7 °F - 70.2 °F 92% 30.06 in 10.0 mi Calm Calm - 0.00 in   Clear
8:58 PM 69.4 °F - 69.1 °F 99% 30.07 in 7.0 mi Calm Calm - N/A   Clear
9:21 PM 68.0 °F - 68.0 °F 100% 30.08 in 9.0 mi Calm Calm - N/A Rain Light Rain
9:30 PM 68.0 °F - 68.0 °F 100% 30.08 in 9.0 mi Calm Calm - N/A   Clear
9:58 PM 68.4 °F - 68.0 °F 99% 30.08 in 10.0 mi Calm Calm - 0.00 in   Clear
10:58 PM 67.5 °F - 67.1 °F 99% 30.09 in 8.0 mi NNE 1.2 mph - N/A   Partly Cloudy
11:58 PM 66.9 °F - 66.6 °F 99% 30.09 in 6.0 mi Calm Calm - N/A   Partly Cloudy